RYR46C LIRP-LEVC

Flight info

Callsign RYR46C
Flight time N/A
Altitude 36000
Route SPEZI DCT ENOBA DCT GEKBA DCT VAMTU DCT KOLON DCT GANGU DCT PADKO DCT DIVKO DCT NILDU DCT NENDA DCT BCN DCT RODRA DCT PEXOT DCT EBROX DCT LOTOS DCT TORDU M985 SOPET
Aircraft B738/M-SDE2E3FGHIRWXY/LB1

Departure

Time 2026-04-22 13:07
Airport Pisa International Airport (LIRP)

Arrival

Time N/A
Airport Valencia Airport (LEVC)
Time Latitude Longitude Altitude Speed Heading
2026-04-22 12:57 43.69758 10.40091 22 ft 0 kts
2026-04-22 12:59 43.69744 10.40091 22 ft 2 kts 343°
2026-04-22 12:59 43.69730 10.40100 22 ft 2 kts 321°
2026-04-22 13:00 43.69720 10.40115 22 ft 2 kts 298°
2026-04-22 13:00 43.69715 10.40134 22 ft 2 kts 275°
2026-04-22 13:00 43.69716 10.40155 22 ft 2 kts 252°
2026-04-22 13:00 43.69721 10.40170 22 ft 0 kts 238°
2026-04-22 13:01 43.69722 10.40172 22 ft 0 kts 239°
2026-04-22 13:01 43.69722 10.40171 22 ft 0 kts 239°
2026-04-22 13:02 43.69721 10.40171 22 ft 0 kts 238°
2026-04-22 13:02 43.69711 10.40142 22 ft 6 kts 244°
2026-04-22 13:02 43.69683 10.40059 22 ft 5 kts 241°
2026-04-22 13:03 43.69649 10.40051 22 ft 7 kts 172°
2026-04-22 13:03 43.69575 10.40069 21 ft 14 kts 170°
2026-04-22 13:03 43.69454 10.40093 21 ft 20 kts 171°
2026-04-22 13:03 43.69303 10.40051 20 ft 25 kts 216°
2026-04-22 13:04 43.69141 10.39883 20 ft 32 kts 215°
2026-04-22 13:04 43.68944 10.39677 19 ft 38 kts 217°
2026-04-22 13:04 43.68719 10.39451 18 ft 39 kts 218°
2026-04-22 13:04 43.68500 10.39224 16 ft 38 kts 216°
2026-04-22 13:05 43.68287 10.39003 15 ft 37 kts 219°
2026-04-22 13:05 43.68082 10.38792 14 ft 36 kts 216°
2026-04-22 13:05 43.67887 10.38590 13 ft 34 kts 218°
2026-04-22 13:05 43.67696 10.38393 12 ft 33 kts 215°
2026-04-22 13:06 43.67599 10.38371 11 ft 12 kts 126°
2026-04-22 13:06 43.67552 10.38461 11 ft 10 kts 126°
2026-04-22 13:06 43.67548 10.38570 11 ft 21 kts 36°
2026-04-22 13:06 43.67835 10.38884 13 ft 88 kts 36°
2026-04-22 13:07 43.68506 10.39563 17 ft 150 kts 36°
2026-04-22 13:07 43.69475 10.40551 262 ft 180 kts 38°
2026-04-22 13:07 43.70423 10.41542 1289 ft 167 kts 38°
2026-04-22 13:07 43.71314 10.42537 1897 ft 173 kts 40°
2026-04-22 13:08 43.72262 10.43642 2321 ft 184 kts 34°
2026-04-22 13:08 43.73506 10.44235 2713 ft 199 kts
2026-04-22 13:08 43.74904 10.43764 3068 ft 220 kts 335°
2026-04-22 13:08 43.76175 10.42389 3461 ft 243 kts 311°
2026-04-22 13:09 43.76839 10.40224 4196 ft 252 kts 276°
2026-04-22 13:09 43.76761 10.37798 4910 ft 255 kts 269°
2026-04-22 13:09 43.76647 10.35373 5582 ft 259 kts 268°
2026-04-22 13:09 43.76408 10.32805 5933 ft 278 kts 259°
2026-04-22 13:10 43.75795 10.30241 6593 ft 285 kts 246°
2026-04-22 13:10 43.74816 10.27855 7307 ft 288 kts 237°
2026-04-22 13:10 43.73593 10.25670 8065 ft 289 kts 231°
2026-04-22 13:10 43.72233 10.23623 8731 ft 293 kts 229°
2026-04-22 13:11 43.70931 10.21473 9422 ft 293 kts 238°
2026-04-22 13:11 43.70059 10.18959 10134 ft 289 kts 259°
2026-04-22 13:11 43.69851 10.16217 10677 ft 292 kts 276°
2026-04-22 13:11 43.70145 10.13402 11104 ft 301 kts 284°
2026-04-22 13:12 43.70620 10.10547 11591 ft 310 kts 287°
2026-04-22 13:12 43.71126 10.07678 12380 ft 309 kts 287°
2026-04-22 13:12 43.71623 10.04788 13105 ft 311 kts 286°
2026-04-22 13:12 43.72097 10.01916 13915 ft 309 kts 286°
2026-04-22 13:13 43.72562 9.99022 14810 ft 306 kts 286°
2026-04-22 13:13 43.73018 9.96182 15506 ft 308 kts 286°
2026-04-22 13:13 43.73481 9.93293 16262 ft 308 kts 285°
2026-04-22 13:13 43.73883 9.90396 17003 ft 308 kts 284°
2026-04-22 13:14 43.74231 9.87495 17793 ft 306 kts 283°
2026-04-22 13:14 43.74566 9.84598 18402 ft 308 kts 283°
2026-04-22 13:14 43.74909 9.81703 18998 ft 311 kts 283°
2026-04-22 13:14 43.75273 9.78695 19564 ft 314 kts 284°
2026-04-22 13:15 43.75632 9.75760 20179 ft 314 kts 283°
2026-04-22 13:15 43.76000 9.72741 20689 ft 318 kts 283°
2026-04-22 13:15 43.76367 9.69736 21211 ft 321 kts 283°
2026-04-22 13:15 43.76738 9.66709 21827 ft 320 kts 283°
2026-04-22 13:16 43.77116 9.63636 22232 ft 326 kts 283°
2026-04-22 13:16 43.77596 9.60597 22760 ft 325 kts 288°
2026-04-22 13:16 43.78364 9.57691 23346 ft 323 kts 296°
2026-04-22 13:16 43.79387 9.54918 23756 ft 327 kts 299°
2026-04-22 13:17 43.80523 9.52190 24213 ft 329 kts 301°
2026-04-22 13:17 43.81709 9.49440 24611 ft 333 kts 301°
2026-04-22 13:17 43.82883 9.46699 25175 ft 332 kts 301°
2026-04-22 13:17 43.84056 9.43916 25556 ft 336 kts 300°
2026-04-22 13:18 43.85224 9.41113 26018 ft 337 kts 300°
2026-04-22 13:18 43.86382 9.38314 26354 ft 341 kts 300°
2026-04-22 13:18 43.87562 9.35455 26734 ft 344 kts 300°
2026-04-22 13:18 43.88756 9.32565 27229 ft 343 kts 300°
2026-04-22 13:19 43.89949 9.29675 27670 ft 344 kts 300°
2026-04-22 13:19 43.91130 9.26802 27924 ft 350 kts 299°
2026-04-22 13:19 43.92330 9.23877 28439 ft 348 kts 299°
2026-04-22 13:19 43.93544 9.20917 28644 ft 354 kts 299°
2026-04-22 13:20 43.94752 9.17966 29114 ft 353 kts 300°
2026-04-22 13:20 43.95974 9.14986 29452 ft 355 kts 300°
2026-04-22 13:20 43.97187 9.12027 29807 ft 357 kts 299°
2026-04-22 13:20 43.98433 9.08985 29997 ft 362 kts 299°
2026-04-22 13:21 43.99660 9.05962 30398 ft 362 kts 299°
2026-04-22 13:21 44.00907 9.02887 30747 ft 363 kts 298°
2026-04-22 13:21 44.02137 8.99859 30970 ft 368 kts 300°
2026-04-22 13:21 44.03419 8.96710 31393 ft 367 kts 299°
2026-04-22 13:22 44.04672 8.93634 31716 ft 368 kts 300°
2026-04-22 13:22 44.05941 8.90508 31868 ft 373 kts 300°
2026-04-22 13:22 44.07211 8.87381 32234 ft 373 kts 299°
2026-04-22 13:22 44.08502 8.84200 32428 ft 377 kts 300°
2026-04-22 13:23 44.09793 8.81014 32743 ft 378 kts 300°
2026-04-22 13:23 44.11036 8.77938 33119 ft 377 kts 300°
2026-04-22 13:23 44.12303 8.74805 33259 ft 382 kts 300°
2026-04-22 13:23 44.13603 8.71590 33551 ft 383 kts 300°
2026-04-22 13:24 44.14847 8.68496 33781 ft 385 kts 300°
2026-04-22 13:24 44.16101 8.65373 34017 ft 387 kts 300°
2026-04-22 13:24 44.17419 8.62094 34253 ft 389 kts 300°
2026-04-22 13:24 44.18757 8.58748 34477 ft 391 kts 301°
2026-04-22 13:25 44.20051 8.55507 35009 ft 384 kts 301°
2026-04-22 13:25 44.21369 8.52216 35244 ft 385 kts 301°
2026-04-22 13:25 44.22668 8.48982 35383 ft 388 kts 300°
2026-04-22 13:25 44.24000 8.45666 35526 ft 390 kts 300°
2026-04-22 13:26 44.25305 8.42394 35736 ft 390 kts 301°
2026-04-22 13:26 44.26635 8.39034 35927 ft 391 kts 300°
2026-04-22 13:26 44.27893 8.35687 36056 ft 393 kts 297°
2026-04-22 13:27 44.29431 8.28671 36106 ft 398 kts 280°
2026-04-22 13:27 44.29483 8.21030 36099 ft 402 kts 272°
2026-04-22 13:28 44.29070 8.13201 36101 ft 404 kts 270°
2026-04-22 13:28 44.28611 8.05396 36092 ft 405 kts 271°
2026-04-22 13:29 44.28159 7.97602 36098 ft 404 kts 271°
2026-04-22 13:29 44.27714 7.89779 36094 ft 405 kts 270°
2026-04-22 13:30 44.26694 7.81938 36069 ft 418 kts 257°
2026-04-22 13:30 44.23810 7.74717 36078 ft 435 kts 239°
2026-04-22 13:31 44.19648 7.68530 36087 ft 443 kts 230°
2026-04-22 13:31 44.14951 7.62776 36081 ft 448 kts 229°
2026-04-22 13:32 44.10620 7.56624 36088 ft 440 kts 236°
2026-04-22 13:32 44.06636 7.50201 36093 ft 440 kts 237°
2026-04-22 13:33 44.02646 7.43679 36080 ft 443 kts 236°
2026-04-22 13:33 43.98614 7.37163 36085 ft 443 kts 236°
2026-04-22 13:34 43.94730 7.30952 36082 ft 444 kts 235°
2026-04-22 13:34 43.90905 7.24871 36087 ft 445 kts 235°
2026-04-22 13:35 43.86796 7.18365 36085 ft 442 kts 234°
2026-04-22 13:35 43.82739 7.11959 36098 ft 443 kts 235°
2026-04-22 13:36 43.78649 7.05514 36090 ft 444 kts 235°
2026-04-22 13:36 43.74551 6.98972 36095 ft 443 kts 238°
2026-04-22 13:37 43.71244 6.91929 36099 ft 432 kts 249°
2026-04-22 13:37 43.68801 6.84404 36094 ft 427 kts 253°
2026-04-22 13:38 43.66597 6.76734 36089 ft 428 kts 254°
2026-04-22 13:38 43.63298 6.65300 36079 ft 427 kts 253°
2026-04-22 13:39 43.61053 6.57692 36073 ft 428 kts 253°
2026-04-22 13:39 43.58798 6.50089 36070 ft 428 kts 253°
2026-04-22 13:40 43.56528 6.42471 36070 ft 428 kts 253°
2026-04-22 13:40 43.54263 6.34925 36066 ft 427 kts 252°
2026-04-22 13:41 43.52054 6.27590 36068 ft 427 kts 252°
2026-04-22 13:41 43.49781 6.20055 36060 ft 427 kts 252°
2026-04-22 13:42 43.47505 6.12514 36060 ft 427 kts 252°
2026-04-22 13:42 43.45207 6.04928 36057 ft 428 kts 252°
2026-04-22 13:43 43.42930 5.97445 36054 ft 428 kts 251°
2026-04-22 13:43 43.40610 5.89861 36054 ft 427 kts 252°
2026-04-22 13:44 43.38308 5.82326 36052 ft 429 kts 251°
2026-04-22 13:44 43.35998 5.74776 36053 ft 429 kts 252°
2026-04-22 13:45 43.33676 5.67237 36053 ft 429 kts 251°
2026-04-22 13:45 43.31336 5.59658 36052 ft 430 kts 251°
2026-04-22 13:46 43.29002 5.52113 36052 ft 430 kts 251°
2026-04-22 13:46 43.26650 5.44542 36052 ft 429 kts 252°
2026-04-22 13:47 43.24259 5.37053 36051 ft 432 kts 249°
2026-04-22 13:47 43.21220 5.30177 36051 ft 441 kts 237°
2026-04-22 13:48 43.17314 5.23716 36050 ft 441 kts 233°
2026-04-22 13:48 43.13216 5.17389 36050 ft 443 kts 233°
2026-04-22 13:49 43.09114 5.11015 36050 ft 444 kts 233°
2026-04-22 13:49 43.05048 5.04648 36048 ft 442 kts 233°
2026-04-22 13:50 43.00998 4.98304 36093 ft 446 kts 233°
2026-04-22 13:50 42.96943 4.91964 36048 ft 438 kts 233°
2026-04-22 13:51 42.92910 4.85658 36037 ft 442 kts 233°
2026-04-22 13:51 42.88882 4.79362 36042 ft 443 kts 233°
2026-04-22 13:52 42.84803 4.73005 36046 ft 442 kts 233°
2026-04-22 13:52 42.80744 4.66691 36036 ft 442 kts 233°
2026-04-22 13:53 42.76688 4.60395 36034 ft 442 kts 233°
2026-04-22 13:53 42.72638 4.54128 36025 ft 443 kts 233°
2026-04-22 13:54 42.68557 4.47824 36031 ft 443 kts 233°
2026-04-22 13:54 42.64469 4.41522 36029 ft 442 kts 233°
2026-04-22 13:55 42.60387 4.35231 36022 ft 443 kts 233°
2026-04-22 13:55 42.56377 4.29073 36016 ft 443 kts 232°
2026-04-22 13:56 42.52307 4.22841 36019 ft 444 kts 232°
2026-04-22 13:56 42.48201 4.16567 36011 ft 441 kts 232°
2026-04-22 13:57 42.44138 4.10367 36016 ft 442 kts 232°
2026-04-22 13:57 42.40021 4.04096 36003 ft 444 kts 232°
2026-04-22 13:58 42.35925 3.97877 36004 ft 442 kts 232°
2026-04-22 13:58 42.31854 3.91710 36002 ft 442 kts 232°
2026-04-22 13:59 42.27724 3.85467 35996 ft 442 kts 232°
2026-04-22 13:59 42.23818 3.79076 35996 ft 440 kts 237°
2026-04-22 14:00 42.20263 3.72329 35983 ft 439 kts 239°
2026-04-22 14:00 42.16779 3.65553 35980 ft 440 kts 239°
2026-04-22 14:01 42.13279 3.58822 35986 ft 439 kts 239°
2026-04-22 14:01 42.09752 3.52110 35981 ft 441 kts 239°
2026-04-22 14:02 42.06171 3.45344 35973 ft 439 kts 239°
2026-04-22 14:02 42.02622 3.38664 35969 ft 440 kts 239°
2026-04-22 14:03 41.99039 3.31949 35968 ft 441 kts 239°
2026-04-22 14:03 41.95551 3.25425 35968 ft 442 kts 239°
2026-04-22 14:04 41.91980 3.18763 35969 ft 442 kts 239°
2026-04-22 14:04 41.88382 3.12060 35967 ft 443 kts 239°
2026-04-22 14:05 41.84776 3.05363 35967 ft 444 kts 239°
2026-04-22 14:06 41.79313 2.95240 35978 ft 443 kts 239°
2026-04-22 14:06 41.75689 2.88544 35973 ft 444 kts 239°
2026-04-22 14:07 41.72049 2.81834 35977 ft 444 kts 239°
2026-04-22 14:07 41.68397 2.75113 35979 ft 444 kts 239°
2026-04-22 14:08 41.64659 2.68502 35979 ft 445 kts 237°
2026-04-22 14:08 41.60849 2.62014 35976 ft 444 kts 237°
2026-04-22 14:09 41.57015 2.55502 35974 ft 445 kts 237°
2026-04-22 14:09 41.53184 2.48984 35967 ft 444 kts 237°
2026-04-22 14:10 41.49381 2.42501 35970 ft 444 kts 237°
2026-04-22 14:10 41.45582 2.36034 35973 ft 444 kts 237°
2026-04-22 14:11 41.41848 2.29688 35974 ft 445 kts 236°
2026-04-22 14:11 41.38073 2.23286 35976 ft 444 kts 236°
2026-04-22 14:12 41.34247 2.16807 35975 ft 444 kts 236°
2026-04-22 14:12 41.30410 2.10333 35968 ft 444 kts 236°
2026-04-22 14:13 41.26399 2.04108 35971 ft 446 kts 232°
2026-04-22 14:13 41.22230 1.98032 35967 ft 447 kts 232°
2026-04-22 14:14 41.18016 1.91919 35968 ft 446 kts 232°
2026-04-22 14:14 41.13848 1.85833 35962 ft 446 kts 232°
2026-04-22 14:15 41.09692 1.79742 35965 ft 445 kts 232°
2026-04-22 14:15 41.05547 1.73663 35965 ft 444 kts 232°
2026-04-22 14:16 41.01395 1.67584 35965 ft 445 kts 232°
2026-04-22 14:16 40.97255 1.61531 35966 ft 444 kts 232°
2026-04-22 14:17 40.93111 1.55485 35965 ft 443 kts 232°
2026-04-22 14:17 40.88981 1.49469 35966 ft 443 kts 232°
2026-04-22 14:18 40.84852 1.43462 35964 ft 443 kts 232°
2026-04-22 14:18 40.80719 1.37460 35966 ft 442 kts 232°
2026-04-22 14:19 40.76593 1.31486 35966 ft 443 kts 231°
2026-04-22 14:19 40.72465 1.25521 35965 ft 442 kts 231°
2026-04-22 14:20 40.66237 1.16539 35962 ft 442 kts 231°
2026-04-22 14:20 40.62101 1.10584 35965 ft 442 kts 231°
2026-04-22 14:21 40.55907 1.01693 35968 ft 435 kts 231°
2026-04-22 14:22 40.49842 0.93022 35964 ft 428 kts 231°
2026-04-22 14:23 40.43827 0.84448 35966 ft 422 kts 231°
2026-04-22 14:23 40.41142 0.80629 35965 ft 419 kts 231°
2026-04-22 14:23 40.40185 0.79292 36164 ft 415 kts 237°
2026-04-22 14:24 40.38266 0.76485 36064 ft 414 kts 237°
2026-04-22 14:24 40.34390 0.70930 36079 ft 411 kts 237°
2026-04-22 14:25 40.30488 0.65444 35722 ft 412 kts 234°
2026-04-22 14:25 40.28525 0.62680 35236 ft 415 kts 233°
2026-04-22 14:25 40.26559 0.59911 34597 ft 417 kts 231°
2026-04-22 14:25 40.24589 0.57138 33858 ft 417 kts 231°
2026-04-22 14:26 40.22613 0.54360 33145 ft 416 kts 230°
2026-04-22 14:26 40.20649 0.51601 32379 ft 415 kts 231°
2026-04-22 14:26 40.18675 0.48827 31571 ft 415 kts 230°
2026-04-22 14:26 40.16711 0.46068 30760 ft 413 kts 230°
2026-04-22 14:27 40.14774 0.43347 29927 ft 412 kts 230°
2026-04-22 14:27 40.12829 0.40618 29373 ft 411 kts 230°
2026-04-22 14:27 40.10863 0.37857 28795 ft 425 kts 230°
2026-04-22 14:27 40.08806 0.34966 28142 ft 436 kts 229°
2026-04-22 14:28 40.06786 0.32134 27485 ft 433 kts 229°
2026-04-22 14:28 40.04737 0.29274 26820 ft 423 kts 229°
2026-04-22 14:28 40.02767 0.26531 26186 ft 413 kts 230°
2026-04-22 14:28 40.00814 0.23813 25552 ft 404 kts 230°
2026-04-22 14:29 39.98924 0.21182 24934 ft 396 kts 230°
2026-04-22 14:29 39.97049 0.18568 24311 ft 395 kts 230°
2026-04-22 14:29 39.95192 0.15977 23696 ft 395 kts 230°
2026-04-22 14:29 39.93328 0.13380 23059 ft 389 kts 230°
2026-04-22 14:30 39.91491 0.10828 22442 ft 379 kts 230°
2026-04-22 14:30 39.89709 0.08356 21865 ft 372 kts 230°
2026-04-22 14:30 39.87947 0.05907 21273 ft 375 kts 229°
2026-04-22 14:30 39.86151 0.03410 20657 ft 377 kts 229°
2026-04-22 14:31 39.84381 0.00953 20044 ft 370 kts 229°
2026-04-22 14:31 39.82633 -0.01466 19437 ft 361 kts 229°
2026-04-22 14:31 39.80907 -0.03852 18848 ft 360 kts 229°
2026-04-22 14:31 39.79209 -0.06205 18298 ft 365 kts 229°
2026-04-22 14:32 39.77454 -0.08635 17679 ft 364 kts 229°
2026-04-22 14:32 39.75740 -0.11002 17085 ft 354 kts 229°
2026-04-22 14:32 39.74091 -0.13277 16512 ft 347 kts 229°
2026-04-22 14:32 39.72415 -0.15587 15944 ft 348 kts 229°
2026-04-22 14:33 39.70761 -0.17886 15330 ft 348 kts 231°
2026-04-22 14:33 39.69554 -0.20526 14782 ft 334 kts 255°
2026-04-22 14:33 39.69432 -0.23424 14596 ft 323 kts 281°
2026-04-22 14:33 39.70389 -0.26158 14048 ft 344 kts 307°
2026-04-22 14:34 39.72165 -0.28293 13386 ft 354 kts 320°
2026-04-22 14:34 39.74078 -0.30201 12783 ft 345 kts 316°
2026-04-22 14:34 39.75732 -0.32429 12229 ft 335 kts 304°
2026-04-22 14:34 39.76917 -0.35044 12142 ft 344 kts 293°
2026-04-22 14:35 39.77719 -0.38099 11842 ft 375 kts 282°
2026-04-22 14:35 39.78195 -0.41481 11482 ft 372 kts 276°
2026-04-22 14:35 39.78432 -0.44789 11071 ft 361 kts 272°
2026-04-22 14:35 39.78648 -0.47971 10784 ft 351 kts 277°
2026-04-22 14:36 39.79147 -0.51051 10345 ft 346 kts 284°
2026-04-22 14:36 39.79969 -0.53980 9891 ft 343 kts 292°
2026-04-22 14:36 39.81073 -0.56691 9475 ft 338 kts 299°
2026-04-22 14:36 39.82322 -0.59259 9140 ft 331 kts 301°
2026-04-22 14:37 39.83581 -0.61734 8675 ft 329 kts 301°
2026-04-22 14:37 39.83923 -0.62398 8544 ft 328 kts 301°
2026-04-22 14:37 39.85190 -0.64860 7737 ft 330 kts 302°
2026-04-22 14:37 39.86445 -0.67303 7121 ft 324 kts 301°
2026-04-22 14:38 39.87673 -0.69695 6867 ft 306 kts 301°
2026-04-22 14:38 39.88793 -0.71925 6760 ft 285 kts 297°
2026-04-22 14:38 39.89635 -0.74180 6691 ft 265 kts 288°
2026-04-22 14:38 39.90103 -0.76409 6586 ft 250 kts 264°
2026-04-22 14:39 39.89119 -0.77911 6322 ft 227 kts 184°
2026-04-22 14:39 39.87529 -0.77997 5833 ft 234 kts 180°
2026-04-22 14:39 39.85925 -0.77967 5724 ft 220 kts 182°
2026-04-22 14:40 39.83538 -0.78017 5606 ft 189 kts 183°
2026-04-22 14:40 39.81868 -0.78047 5444 ft 169 kts 183°
2026-04-22 14:40 39.80748 -0.78061 5338 ft 154 kts 183°
2026-04-22 14:40 39.79720 -0.78065 5218 ft 144 kts 183°
2026-04-22 14:41 39.78620 -0.78070 5365 ft 167 kts 183°
2026-04-22 14:41 39.77408 -0.78087 5437 ft 179 kts 183°
2026-04-22 14:41 39.76175 -0.78108 5304 ft 175 kts 183°
2026-04-22 14:41 39.74970 -0.78128 5202 ft 168 kts 183°
2026-04-22 14:42 39.73792 -0.78163 5058 ft 179 kts 183°
2026-04-22 14:42 39.72419 -0.78219 4721 ft 208 kts 184°
2026-04-22 14:42 39.70947 -0.78366 4324 ft 215 kts 187°
2026-04-22 14:42 39.69458 -0.78547 3921 ft 215 kts 186°
2026-04-22 14:43 39.67950 -0.78653 3515 ft 215 kts 182°
2026-04-22 14:43 39.66456 -0.78591 3159 ft 212 kts 176°
2026-04-22 14:43 39.65202 -0.78372 3632 ft 165 kts 173°
2026-04-22 14:43 39.63969 -0.78092 3109 ft 186 kts 169°
2026-04-22 14:44 39.62761 -0.77671 2975 ft 174 kts 162°
2026-04-22 14:44 39.61626 -0.77109 2940 ft 177 kts 159°
2026-04-22 14:44 39.60511 -0.76391 3181 ft 181 kts 152°
2026-04-22 14:44 39.59516 -0.75388 3410 ft 179 kts 134°
2026-04-22 14:45 39.58790 -0.74047 3426 ft 184 kts 121°
2026-04-22 14:45 39.58199 -0.72565 3279 ft 183 kts 118°
2026-04-22 14:45 39.57651 -0.71090 2967 ft 182 kts 118°